Miscellaneous Local Product
Issued by NWS North Platte, NE

Home | Current Version | Previous Version | Text Only | Print | Product List | Glossary On
Versions: 1 2 3 4 5 6 7 8 9 10 11 12 13 14 15 16 17 18 19 20 21 22 23 24 25 26 27 28 29 30 31 32 33 34 35 36 37 38 39 40 41 42 43 44 45 46 47 48 49 50
000
AXUS43 KLBF 232110
MISLBF


WESTERN AND NORTH CENTRAL NEBRASKA HOURLY WEATHER ROUNDUP
NATIONAL WEATHER SERVICE NORTH PLATTE NE
400 PM CDT TUE MAY 23 2017

NOTE: "FAIR" INDICATES FEW OR NO CLOUDS BELOW 12,000 FEET WITH NO
SIGNIFICANT WEATHER AND/OR OBSTRUCTIONS TO VISIBILITY.

NOTE: STATIONS NOT REPORTING VARIABLES SUCH AS SKY/WEATHER OR
PRESSURE ARE PROVIDED BY RAWS AND APRS NETWORKS AND ARE NOT UNDER
NATIONAL WEATHER SERVICE QUALITY CONTROL.

...OBSERVATIONS IN AND NEAR THE EASTERN PANHANDLE OF NEBRASKA...

CITY           SKY/WX    TMP DP  RH WIND       PRES   REMARKS
PINE RIDGE     CLOUDY    61  37  41 N17G30    30.07F
GORDON         CLOUDY    56  36  45 N17G28    30.07S
CHADRON        PTSUNNY   60  38  43 N17G26    30.08F
ALLIANCE       MOSUNNY   61  37  41 N18       30.06F
SIDNEY         LGT RAIN  54  37  52 N23G33    30.09S
CRESCENT LAKE    N/A     58  31  35 N20G32      N/A
$$

...OBSERVATIONS IN NORTHERN NEBRASKA AND FAR SOUTHERN SOUTH DAKOTA...

CITY           SKY/WX    TMP DP  RH WIND       PRES   REMARKS
WINNER         CLOUDY    57  42  57 N21G30    29.99S
VALENTINE      CLOUDY    57  35  43 N21G30    30.00F
THEDFORD       CLOUDY    56  37  49 NW23G30   30.01F
AINSWORTH      CLOUDY    55  42  63 N22G31    29.99F
O`NEILL        CLOUDY    53  40  61 N20G26    29.96S
ORD            CLOUDY    54  38  54 N26G35    29.94F
BROKEN BOW     CLOUDY    57  39  51 N29G37    29.97F
HALSEY           N/A     53  37  55 NW12G23     N/A
BUTTE            N/A     50  42  74 N20         N/A
CHAMBERS         N/A     55  39  55 N5          N/A
EWING            N/A     52  43  72 N15G22      N/A
$$

...OBSERVATIONS IN SOUTHWEST NEBRASKA AND FAR NORTHEAST COLORADO...

CITY           SKY/WX    TMP DP  RH WIND       PRES   REMARKS
WRAY           CLOUDY    59  32  36 N24G30    30.07S
IMPERIAL       CLOUDY    60  34  37 N26G35    30.03F
OGALLALA       CLOUDY    64  32  31 N21G32    30.04F
NORTH PLATTE   CLOUDY    58  39  49 N16G25    30.02S
MCCOOK         PTSUNNY   66  36  32 N28G38    29.99F
LEXINGTON      CLOUDY    57  41  55 N24G33    29.99S
STAPLETON        N/A     54  38  55 CALM        N/A
GOTHENBURG       N/A     57  30  36 NW20        N/A
CALLAWAY         N/A     53  41  64 N20         N/A
$$

...OBSERVATIONS IN CENTRAL LINCOLN COUNTY AREA...

CITY           SKY/WX    TMP DP  RH WIND       PRES   REMARKS
N.P. AIRPORT   CLOUDY    58  39  49 N16G25    30.02S
N.P. DOWNTOWN    N/A     55  39  55 N13G22      N/A
N.P. SOUTHEAST   N/A     55  36  49 N10G21      N/A
N.P. HILLCREST   N/A     54  37  53 N21G32      N/A
$$

...SOME OBSERVATIONS FROM AROUND THE REGION...

CITY           SKY/WX    TMP DP  RH WIND       PRES   REMARKS
DENVER         PTSUNNY   60  36  40 N13G26    30.14F
LIMON          PTSUNNY   57  33  40 N24G32    30.12F
ASPEN          MOSUNNY   54  23  30 VRB7G22   30.23F
LARAMIE        CLOUDY    51  28  41 NW21G29   30.18F
CASPER         CLOUDY    60  35  39 VRB6      30.15F
CHEYENNE       PTSUNNY   55  30  38 N15G29    30.15F
SCOTTSBLUFF    CLOUDY    63  33  32 N22       30.08F
GRAND ISLAND   CLOUDY    55  42  61 N22G31    29.94S
OMAHA          CLOUDY    61  45  55 NW13      29.84S
SIOUX FALLS    CLOUDY    58  48  69 N17       29.85F
PIERRE         LGT RAIN  56  39  53 N20G28    30.02R
RAPID CITY     MOSUNNY   63  34  33 N20G33    30.07F
BISMARCK       CLOUDY    64  34  32 N13       30.04F
KANSAS CITY    CLOUDY    62  48  60 NW8       29.81F
HILL CITY      CLOUDY    63  35  35 N23G32    29.97F
WICHITA        CLOUDY    66  45  46 NW7       29.88F
DODGE CITY     CLOUDY    63  38  39 N17G28    29.98F
OKLAHOMA CITY  CLOUDY    68  46  45 N14G21    29.91F
DALLAS         LGT RAIN  69  60  73 NW21      29.87R
AMARILLO       PTSUNNY   64  36  35 N17G24    30.07F
$$




USA.gov is the U.S. government's official web portal to all federal, state and local government web resources and services.